Regional Weather Roundup
Issued by NWS Cleveland, OH

Home | Current Version | Previous Version | Text Only | Print | Product List | Glossary Off
Versions: 1 2 3 4 5 6 7 8 9 10 11 12 13 14 15 16 17 18 19 20 21 22 23 24 25 26 27 28 29 30 31 32 33 34 35 36 37 38 39 40 41 42 43 44 45 46 47 48 49 50

000
ASUS41 KCLE 251810
RWRCLE
OHIO REGIONAL WEATHER ROUNDUP
NATIONAL WEATHER SERVICE CLEVELAND, OH
100 PM EST THU DEC 25 2014

NOTE: "FAIR" INDICATES FEW OR NO CLOUDS BELOW 12,000 FEET WITH NO
SIGNIFICANT WEATHER AND/OR OBSTRUCTIONS TO VISIBILITY.

OHZ001>008-015>018-024>027-034-035-043-044-251900-
   NORTHWEST OHIO

CITY           SKY/WX    TMP DP  RH WIND       PRES   REMARKS
DEFIANCE       CLOUDY    38  30  73 SW12G22   30.02R
FINDLAY        CLOUDY    38  30  73 SW17G26   30.03R
TOLEDO EXPRESS CLOUDY    37  28  70 W22G28    30.00R
TOLEDO EXEC    CLOUDY    39  28  64 SW23G29   30.01R
LIMA           CLOUDY    39  31  72 SW16      30.04R
$$

OHZ009>014-019>023-028>033-038-089-251900-
   NORTHEAST OHIO

CITY           SKY/WX    TMP DP  RH WIND       PRES   REMARKS
CLE-HOPKINS    CLOUDY    41  31  67 SW15      30.01R
CLE-LAKEFRONT  CLOUDY    42  30  62 SW18      29.98R
CUY CO. ARPT   CLOUDY    43  32  65 W15G28    29.98R
LORAIN-ELYRIA  CLOUDY    39  32  76 W15       30.00R
ASHTABULA      CLOUDY    40  31  70 W20G26    29.96R
AKRON-CANTON   CLOUDY    38  32  79 W13G20    30.00R
WOOSTER        CLOUDY    38  30  73 W17       30.01S
MANSFIELD      CLOUDY    37  30  75 SW13      30.01R
YOUNGSTOWN     CLOUDY    39  31  72 W13       29.96R
$$

OHZ042-051>053-060>062-070>072-077>081-251900-
  SOUTHWEST OHIO

CITY           SKY/WX    TMP DP  RH WIND       PRES   REMARKS
CINC-COVINGTON CLOUDY    40  29  64 SW10G18   30.11F
CINC-LUNKEN    CLOUDY    40  34  79 SW14      30.14F
HAMILTON       CLOUDY    41  32  70 SW10      30.12F
DAYTON         CLOUDY    39  31  72 SW21G28   30.08S
WRIGHT-PAT AFB LGT RAIN  38  34  87 SW12      30.08F
DAYTON GENERAL CLOUDY    38  32  79 SW12      30.08F
WILMINGTON     CLOUDY    38  29  70 SW20G25   30.09S
$$

OHZ036-037-039>041-045>050-054>059-063>069-073>076-082>088-251900-
  CENTRAL AND SOUTHEAST OHIO

CITY           SKY/WX    TMP DP  RH WIND       PRES   REMARKS
COLUMBUS       CLOUDY    39  30  70 W17       30.08S
OSU AIRPORT    CLOUDY    39  29  67 SW15G25   30.07S
BOLTON FIELD   CLOUDY    39  30  70 SW15      30.09S
RICKENBACK AFB CLOUDY    39  31  73 SW14G23   30.09S
NEWARK         CLOUDY    40  29  64 W17       30.07S
MARION         CLOUDY    38  28  67 SW16G22   30.05R
LANCASTER      CLOUDY    40  31  70 W12G22    30.10S
ZANESVILLE     CLOUDY    38  29  70 W16G24    30.07R
NEW PHILLY     CLOUDY    41  28  60 SW15G23   30.05R
$$


USA.gov is the U.S. government's official web portal to all federal, state and local government web resources and services.